This is the latest recevied weather packets stored in our database for station/object E20ZNR-1. If no packets are shown the sender has not sent any weather packets the latest 10 day(s).
| Time | Temp. | Humidity | Pressure | Rain* | Wind** | Luminosity | Snow |
|---|---|---|---|---|---|---|---|
| 1778229788 | 30° C | 94% | 1004 hPa | - | - | 0 W/m² | - |
| 1778228863 | 31.11° C | 86% | 1003 hPa | - | - | 0 W/m² | - |
| 1778227937 | 31.67° C | 82% | 1003 hPa | - | - | 0 W/m² | - |
| 1778227012 | 31.11° C | 79% | 1003 hPa | - | - | 0 W/m² | - |
| 1778226086 | 31.67° C | 76% | 1004 hPa | - | - | 0 W/m² | - |
| 1778225160 | 31.67° C | 72% | 1004 hPa | - | - | 0 W/m² | - |
| 1778224235 | 32.22° C | 68% | 1004 hPa | - | - | 0 W/m² | - |
| 1778223309 | 32.78° C | 64% | 1004 hPa | - | - | 0 W/m² | - |
| 1778222384 | 32.78° C | 64% | 1004 hPa | - | - | 0 W/m² | - |
| 1778221457 | 32.78° C | 57% | 1004 hPa | - | - | 0 W/m² | - |
| 1778220533 | 36.11° C | 56% | 1003 hPa | - | - | 0 W/m² | - |
| 1778219608 | 38.33° C | 44% | 1003 hPa | - | - | 0 W/m² | - |
| 1778218683 | 38.33° C | 43% | 1004 hPa | - | - | 0 W/m² | - |
| 1778217758 | 39.44° C | 49% | 1004 hPa | - | - | 0 W/m² | - |
| 1778216833 | 39.44° C | 46% | 1004 hPa | - | - | 0 W/m² | - |
| 1778215909 | 40.56° C | 49% | 1005 hPa | - | - | 0 W/m² | - |
| 1778214984 | 39.44° C | 51% | 1005 hPa | - | - | 0 W/m² | - |
| 1778214059 | 40° C | 54% | 1006 hPa | - | - | 0 W/m² | - |
| 1778213134 | 36.67° C | 57% | 1006 hPa | - | - | 0 W/m² | - |
| 1778212210 | 38.33° C | 58% | 1006 hPa | - | - | 0 W/m² | - |
| 1778211285 | 38.33° C | 57% | 1006 hPa | - | - | 0 W/m² | - |
| 1778210360 | 37.78° C | 58% | 1006 hPa | - | - | 0 W/m² | - |
| 1778209435 | 36.67° C | 59% | 1006 hPa | - | - | 0 W/m² | - |
| 1778208510 | 38.33° C | 57% | 1006 hPa | - | - | 0 W/m² | - |
| 1778207585 | 37.22° C | 60% | 1006 hPa | - | - | 0 W/m² | - |
* Rain since midnight (hover to see other rain measurements)
** Current wind speed in m/s (hover to see current wind gust speed)